Time,TemperatureF,DewpointF,PressureIn,WindDirection,WindDirectionDegrees,WindSpeedMPH,WindSpeedGustMPH,Humidity,HourlyPrecipIn,Conditions,Clouds,dailyrainin,SoftwareType,DateUTC
2013-11-25 00:22:00,16.0,11.0,30.46,SSW,202,5.0,7.0,80,0.00,,,0.00,,2013-11-25 05:22:00,
2013-11-25 00:43:00,16.0,11.0,30.45,SSW,202,5.0,6.0,81,0.00,,,0.00,,2013-11-25 05:43:00,
2013-11-25 00:53:00,16.0,11.0,30.45,SSW,202,6.0,7.0,81,0.00,,,0.00,,2013-11-25 05:53:00,
2013-11-25 01:12:00,16.0,12.0,30.45,SSW,198,6.0,10.0,83,0.00,,,0.00,,2013-11-25 06:12:00,
2013-11-25 01:22:00,17.0,13.0,30.43,South,188,9.0,11.0,83,0.00,,,0.00,,2013-11-25 06:22:00,
2013-11-25 01:42:00,17.0,12.0,30.42,South,186,9.0,12.0,82,0.00,,,0.00,,2013-11-25 06:42:00,
2013-11-25 01:52:00,18.0,13.0,30.41,South,186,9.0,12.0,80,0.00,,,0.00,,2013-11-25 06:52:00,
2013-11-25 02:22:00,18.0,13.0,30.40,South,191,8.0,12.0,79,0.00,,,0.00,,2013-11-25 07:22:00,
2013-11-25 02:52:00,18.0,12.0,30.40,SSW,205,9.0,11.0,78,0.00,,,0.00,,2013-11-25 07:52:00,
2013-11-25 03:11:00,18.0,13.0,30.40,SSW,205,5.0,11.0,79,0.00,,,0.00,,2013-11-25 08:11:00,
2013-11-25 03:22:00,19.0,14.0,30.39,SSW,203,7.0,12.0,79,0.00,,,0.00,,2013-11-25 08:22:00,
2013-11-25 03:42:00,19.0,14.0,30.38,SSW,194,9.0,12.0,79,0.00,,,0.00,,2013-11-25 08:42:00,
2013-11-25 03:52:00,19.0,14.0,30.38,SSW,202,10.0,14.0,80,0.00,,,0.00,,2013-11-25 08:52:00,
2013-11-25 04:22:00,20.0,15.0,30.37,SSW,202,11.0,16.0,79,0.00,,,0.00,,2013-11-25 09:22:00,
2013-11-25 04:43:00,20.0,15.0,30.37,SSW,205,7.0,12.0,79,0.00,,,0.00,,2013-11-25 09:43:00,
2013-11-25 04:53:00,20.0,14.0,30.37,SSW,209,10.0,12.0,78,0.00,,,0.00,,2013-11-25 09:53:00,
2013-11-25 05:23:00,20.0,15.0,30.36,South,186,8.0,11.0,80,0.00,,,0.00,,2013-11-25 10:23:00,
2013-11-25 05:42:00,20.0,15.0,30.35,South,186,11.0,16.0,80,0.00,,,0.00,,2013-11-25 10:42:00,
2013-11-25 05:53:00,20.0,15.0,30.34,South,182,9.0,14.0,80,0.00,,,0.00,,2013-11-25 10:53:00,
2013-11-25 06:12:00,21.0,16.0,30.34,SSW,192,9.0,12.0,80,0.00,,,0.00,,2013-11-25 11:12:00,
2013-11-25 06:22:00,21.0,16.0,30.34,South,191,8.0,11.0,80,0.00,,,0.00,,2013-11-25 11:22:00,
2013-11-25 06:52:00,21.0,16.0,30.33,South,184,8.0,11.0,80,0.00,,,0.00,,2013-11-25 11:52:00,
2013-11-25 12:22:00,28.0,17.0,30.22,SSW,213,14.0,23.0,64,0.00,,,0.00,,2013-11-25 17:22:00,
2013-11-25 12:43:00,28.0,17.0,30.22,SSW,205,12.0,19.0,64,0.00,,,0.00,,2013-11-25 17:43:00,
2013-11-25 12:52:00,28.0,17.0,30.21,SW,217,15.0,20.0,63,0.00,,,0.00,,2013-11-25 17:52:00,
2013-11-25 13:12:00,28.0,17.0,30.19,SSW,205,11.0,18.0,64,0.00,,,0.00,,2013-11-25 18:12:00,
2013-11-25 13:22:00,29.0,18.0,30.19,SSW,202,11.0,21.0,63,0.00,,,0.00,,2013-11-25 18:22:00,
2013-11-25 13:42:00,29.0,18.0,30.19,SSW,200,14.0,19.0,62,0.00,,,0.00,,2013-11-25 18:42:00,
2013-11-25 13:52:00,29.0,17.0,30.19,SSW,205,13.0,20.0,61,0.00,,,0.00,,2013-11-25 18:52:00,
2013-11-25 14:22:00,30.0,18.0,30.17,SW,234,14.0,19.0,61,0.00,,,0.00,,2013-11-25 19:22:00,
2013-11-25 14:42:00,30.0,19.0,30.16,SW,220,11.0,22.0,62,0.00,,,0.00,,2013-11-25 19:42:00,
2013-11-25 14:52:00,30.0,18.0,30.16,SW,218,15.0,20.0,61,0.00,,,0.00,,2013-11-25 19:52:00,
2013-11-25 15:22:00,30.0,18.0,30.17,SW,218,14.0,24.0,61,0.00,,,0.00,,2013-11-25 20:22:00,
2013-11-25 15:42:00,30.0,19.0,30.16,SW,227,15.0,26.0,64,0.00,,,0.00,,2013-11-25 20:42:00,
2013-11-25 15:52:00,30.0,19.0,30.17,SW,230,18.0,24.0,64,0.00,,,0.00,,2013-11-25 20:52:00,
2013-11-25 16:22:00,30.0,21.0,30.16,SW,214,13.0,17.0,68,0.00,,,0.00,,2013-11-25 21:22:00,
2013-11-25 16:44:00,30.0,21.0,30.15,WSW,237,9.0,14.0,68,0.00,,,0.00,,2013-11-25 21:44:00,
2013-11-25 16:54:00,30.0,21.0,30.15,SSW,202,10.0,17.0,68,0.00,,,0.00,,2013-11-25 21:54:00,
2013-11-25 17:13:00,30.0,21.0,30.15,SSW,197,8.0,13.0,69,0.00,,,0.00,,2013-11-25 22:13:00,
2013-11-25 17:23:00,30.0,20.0,30.15,SSW,213,10.0,13.0,67,0.00,,,0.00,,2013-11-25 22:23:00,
2013-11-25 17:43:00,31.0,20.0,30.16,SW,219,9.0,16.0,64,0.00,,,0.00,,2013-11-25 22:43:00,
2013-11-25 17:53:00,31.0,20.0,30.16,SW,219,14.0,19.0,63,0.00,,,0.00,,2013-11-25 22:53:00,
2013-11-25 18:22:00,31.0,20.0,30.14,SSW,209,14.0,18.0,64,0.00,,,0.00,,2013-11-25 23:22:00,
2013-11-25 18:42:00,31.0,20.0,30.15,SSW,209,9.0,22.0,63,0.00,,,0.00,,2013-11-25 23:42:00,
2013-11-25 18:52:00,31.0,20.0,30.15,SSW,205,13.0,19.0,64,0.00,,,0.00,,2013-11-25 23:52:00,
2013-11-25 19:22:00,31.0,20.0,30.14,SSW,213,13.0,17.0,63,0.00,,,0.00,,2013-11-26 00:22:00,
2013-11-25 19:42:00,31.0,20.0,30.14,SSW,207,11.0,17.0,64,0.00,,,0.00,,2013-11-26 00:42:00,
2013-11-25 19:52:00,31.0,20.0,30.14,SW,214,10.0,18.0,63,0.00,,,0.00,,2013-11-26 00:52:00,
2013-11-25 20:21:00,31.0,20.0,30.15,SW,218,9.0,23.0,63,0.00,,,0.00,,2013-11-26 01:21:00,
2013-11-25 20:42:00,31.0,20.0,30.15,SW,226,14.0,20.0,63,0.00,,,0.00,,2013-11-26 01:42:00,
2013-11-25 20:52:00,32.0,21.0,30.15,SW,227,9.0,20.0,63,0.00,,,0.00,,2013-11-26 01:52:00,
2013-11-25 21:11:00,31.0,20.0,30.15,SW,234,15.0,20.0,63,0.00,,,0.00,,2013-11-26 02:11:00,
2013-11-25 21:22:00,31.0,20.0,30.14,WSW,242,18.0,23.0,64,0.00,,,0.00,,2013-11-26 02:22:00,
2013-11-25 21:42:00,31.0,21.0,30.15,SW,232,20.0,25.0,67,0.00,,,0.00,,2013-11-26 02:42:00,
2013-11-25 21:52:00,31.0,21.0,30.15,WSW,239,14.0,22.0,67,0.00,,,0.00,,2013-11-26 02:52:00,
2013-11-25 22:22:00,31.0,23.0,30.14,WSW,242,13.0,22.0,71,0.00,,,0.00,,2013-11-26 03:22:00,
2013-11-25 22:44:00,30.0,22.0,30.15,WSW,254,12.0,20.0,73,0.00,,,0.00,,2013-11-26 03:44:00,
2013-11-25 22:54:00,30.0,23.0,30.15,WSW,237,11.0,17.0,75,0.00,,,0.00,,2013-11-26 03:54:00,
2013-11-25 23:13:00,29.0,25.0,30.15,SW,230,12.0,21.0,84,0.00,,,0.00,,2013-11-26 04:13:00,
2013-11-25 23:23:00,27.0,24.0,30.14,WSW,239,10.0,16.0,89,0.00,,,0.00,,2013-11-26 04:23:00,
2013-11-25 23:43:00,27.0,25.0,30.14,WSW,242,9.0,17.0,91,0.00,,,0.00,,2013-11-26 04:43:00,
2013-11-25 23:53:00,27.0,25.0,30.14,WSW,238,8.0,12.0,92,0.00,,,0.00,,2013-11-26 04:53:00,